Terminal Aerodrome Forecast
Issued by NWS Wilmington, OH

Current Version | Previous Version | Graphics & Text | Print | Product List | Glossary On
Versions: 1 2 3 4 5 6 7 8 9 10 11 12 13 14 15 16 17 18 19 20 21 22 23 24 25 26 27 28 29
000
FTUS41 KILN 290542
TAFCVG
TAF
KCVG 290542Z 2906/3012 VRB03KT 2SM BR BKN006
     FM290800 VRB03KT 1SM BR OVC004
      TEMPO 2908/2912 1/4SM FG VV002
     FM291500 03004KT 4SM BR OVC010
     FM291700 03004KT P6SM VCSH OVC020
     FM291900 VRB04KT P6SM VCSH SCT025 BKN040
     FM300600 VRB04KT 4SM -SHRA BR OVC020=

USA.gov is the U.S. government's official web portal to all federal, state and local government web resources and services.